Content
SEND FEEDBACK

Daily
Averages
Monthly
Summary
Philippines

QUEZON CITY, PHILIPPINES


Home > Asia > Philippines
Elevation: 46 meters     Latitude: 14 39N     Longitude: 121 03E

WEATHER
 
SELECT A DAY
Number of Records: 177,139;   Date Range: 7/1/96 - 10/24/14
 
SHARE

PRINT THIS DATA

[ ← Previous Day ]
WEATHER ALMANAC - 1 JULY, 2013
[ Next Day → ]
[ °F ]   °C
We're sorry. There is no daily almanac available for Quezon City, Philippines on 1 July, 2013.
WEATHER BY HOUR - 1 JULY, 2013
[ °F ]   °C
Local TimeTemperatureDewpointHumidityBarometerVisibilityWind DirectionWind SpeedGust SpeedPrecipitationEventsConditions
1:00 AM27 °C25 °C89 %1008.1 hPa10 kmEast (80°)5.6 km/hMostly Cloudy
2:00 AM27 °C25 °C89 %1007.1 hPa10 kmSE (130°)5.6 km/hMostly Cloudy
3:00 AM27 °C24 °C84 %1007.1 hPa10 kmCalmMostly Cloudy
4:00 AM27 °C24 °C84 %1007.1 hPa10 kmVariable1.9 km/hMostly Cloudy
5:00 AM26.7 °C25 °C86 %1007.5 hPa9.7 kmCalmHaze
5:00 AM26 °C25 °C94 %1008.1 hPa10 kmEast (80°)1.9 km/hScattered Clouds
6:00 AM27 °C24 °C84 %1008.1 hPa10 kmEast (100°)5.6 km/hScattered Clouds
7:00 AM27 °C25 °C89 %1008.1 hPa10 kmENE (70°)7.4 km/hScattered Clouds
8:00 AM28.9 °C23.9 °C67 %1008.5 hPa9.7 kmEast (100°)14.3 km/hHaze
8:00 AM29 °C24 °C74 %1008.1 hPa10 kmNorthScattered Clouds
9:00 AM30 °C24 °C70 %1008.1 hPa10 kmEast (100°)18.5 km/hScattered Clouds
10:00 AM31 °C24 °C66 %1009.1 hPa10 kmESE (120°)14.8 km/hScattered Clouds
11:00 AM31.7 °C22.8 °C51 %1009.1 hPa9.7 kmEast (100°)14.3 km/hHaze
11:00 AM32 °C24 °C62 %1008.1 hPa10 kmESE (110°)14.8 km/hPartly Cloudy
12:00 PM33 °C23 °C55 %1008.1 hPa10 kmSE (130°)14.8 km/hPartly Cloudy
1:00 PM33 °C24 °C59 %1007.1 hPa10 kmSE (130°)18.5 km/hPartly Cloudy
2:00 PM33.9 °C24.4 °C48 %1006.4 hPa9.7 kmESE (120°)18 km/hHaze
2:00 PM33 °C24 °C59 %1006.1 hPa10 kmESE (120°)16.7 km/hPartly Cloudy
3:00 PM33 °C25 °C63 %1006.1 hPa10 kmSE (130°)14.8 km/hPartly Cloudy
4:00 PM34 °C24 °C56 %1006.1 hPa10 kmSE (130°)13 km/hScattered Clouds
4:15 PM28 °C24 °C79 %1007.1 hPa8 kmEast (100°)27.8 km/h53.8 km/hRain-ThunderstormLight Thunderstorms and Rain
5:00 PM27.8 °C25 °C80 %1004.7 hPa9.7 kmNorth (10°)3.5 km/hRainLight Rain
5:00 PM28 °C25 °C84 %1007.1 hPa10 kmEast (90°)5.6 km/hScattered Clouds
6:00 PM30 °C26 °C79 %1007.1 hPa10 kmSSE (160°)3.7 km/hScattered Clouds
7:00 PM29 °C25 °C79 %1008.1 hPa10 kmSE (130°)7.4 km/hMostly Cloudy
8:00 PM28.9 °C25 °C74 %1009.1 hPa9.7 kmEast (100°)7.2 km/hHaze
8:00 PM27 °C27 °C100 %1008.1 hPa10 kmVariable1.9 km/hScattered Clouds
9:00 PM29 °C25 °C79 %1009.1 hPa10 kmESE (120°)7.4 km/hScattered Clouds
10:00 PM29 °C25 °C79 %1010.2 hPa10 kmSE (140°)3.7 km/hScattered Clouds
11:00 PM28.3 °C25.6 °C79 %1011.2 hPa9.7 kmCalmHaze
11:00 PM28 °C25 °C84 %1010.2 hPa10 kmCalmPartly Cloudy
Hourly data recorded from RPLL, located 0 kilometers away from Quezon City, Philippines







STORIES FROM OUR PARTNERS